Preview of NWS' New Version of Forecast
This preview is not operational and should not be used for support decisions.

Regional Weather Roundup (RWR)

Issued by National Weather Service (NWS)

                            
000
ASUS46 KSEW 240410
RWRWA 

WASHINGTON REGIONAL WEATHER ROUNDUP
NATIONAL WEATHER SERVICE SEATTLE WA
900 PM PDT SUN JUN 23 2019

NOTE:"FAIR" INDICATES FEW OR NO CLOUDS BELOW 12,000 FEET WITH NO 
SIGNIFICANT WEATHER AND/OR OBSTRUCTIONS TO VISIBILITY.

WAZ507-509-555>559-240500-
SEATTLE, TACOMA, EVERETT, AND VICINITY
  
CITY           SKY/WX    TMP DP  RH WIND       PRES   REMARKS
EVERETT        LGT RAIN  52  49  89 N6        30.14S FOG              
BOEING FIELD   CLOUDY    57  48  72 E3        30.14S                  
RENTON         CLOUDY    57  50  77 VRB5      30.14R                  
SEATAC AIRPORT MOCLDY    56  48  74 N13       30.14R                  
JBLM-MCCHORD   CLEAR     59  50  71 SW9       30.13S                  
PUYALLUP       MOCLDY    59  46  63 W7        30.14R                  
BREMERTON      MOCLDY    54  49  83 NE7       30.12F                  
JBLM-FT LEWIS  CLOUDY    59  50  71 S7        30.12F                  
TACOMA NARROWS CLOUDY    57  47  69 CALM      30.13F                  
$$
 
WAZ001-503-506-510-514-515-240500-
NORTH INTERIOR
  
CITY           SKY/WX    TMP DP  RH WIND       PRES   REMARKS
BELLINGHAM     MOCLDY    58  47  66 S8        30.09F                  
FRIDAY HARBOR  CLOUDY    55  48  77 SW10      30.11S                  
EASTSOUND      CLOUDY    59  48  67 S6        30.08S                  
PORT ANGELES   CLOUDY    54  48  80 W10       30.14F                  
EDIZ HOOK      CLOUDY    54  49  85 W17       30.13F                  
PORT TOWNSEND  CLOUDY    57  48  72 W12G21    30.11F                  
NAS WHIDBEY    CLOUDY    58  48  69 W28G35    30.14F                  
ARLINGTON      LGT RAIN  55  48  77 W3        30.15F                  
BURLINGTON     CLOUDY    57  48  72 CALM      30.13S                  
$$
 
WAZ020-022-039-040-504-511-512-240500-
SOUTHWEST INTERIOR
  
CITY           SKY/WX    TMP DP  RH WIND       PRES   REMARKS
SHELTON        PTCLDY    58  44  60 W9        30.09F                  
OLYMPIA        PTCLDY    57  43  59 SW7       30.13F                  
CHEHALIS       MOCLDY    57  48  72 CALM      30.16S                  
KELSO          PTCLDY    58  47  66 NW8       30.17F                  
VANCOUVER      CLEAR     60  46  59 NW9       30.13F                  
SCAPPOOSE, OR  CLEAR     59  46  62 NW3       30.14S                  
PORTLAND, OR   PTCLDY    62  47  57 N8        30.14S                  
$$
 
WAZ021-516-517-240500-
WASHINGTON COAST
  
CITY           SKY/WX    TMP DP  RH WIND       PRES   REMARKS
FORKS          CLOUDY    54  48  80 NW6       30.17F                  
HOQUIAM        CLEAR     56  51  84 NW10      30.17F                  
ASTORIA, OR    CLOUDY    56  50  80 W6        30.17F                  
$$
 
WAZ019-023-024-040-567>569-240500-
CASCADE MOUNTAINS AND COLUMBIA GORGE
  
CITY           SKY/WX    TMP DP  RH WIND       PRES   REMARKS
STAMPEDE PASS  CLOUDY    45  42  89 VRB7      30.09S                  
TROUTDALE, OR  CLEAR     62  47  57 NW7       30.13S                  
HOOD RIVER, OR PTCLDY    61  45  55 NW7       30.08S                  
THE DALLES, OR PTCLDY    65  43  44 W12       30.04F                  
$$

WAZ026-027-041>044-520-521-240500-
EAST SLOPES
  
CITY           SKY/WX    TMP DP  RH WIND       PRES   REMARKS
OMAK           MOCLDY    69  35  28 NW14      29.85R                  
WENATCHEE      CLOUDY    63  37  38 W12G21    29.94S                  
ELLENSBURG     CLOUDY    59  43  55 NW23G30   30.01F                  
YAKIMA         MOCLDY    62  40  44 W8        29.99F                  
SUNNYSIDE ARPT CLEAR     63  43  47 W10       29.97                   
YAKIMA TC      FAIR      64  35  35 NW12      29.98F                  
$$

WAZ028-034-035-240500-
COLUMBIA BASIN
  
CITY           SKY/WX    TMP DP  RH WIND       PRES   REMARKS
EPHRATA        PTCLDY    65  33  30 W23       29.88S                  
MOSES LAKE     PTCLDY    67  34  29 W13       29.92R                  
PASCO          PTCLDY    67  39  35 NW15      29.94R                  
RICHLAND ARPT  CLEAR     69  38  32 NW16      29.94R                  
HERMISTON, OR  PTCLDY    66  45  46 SW14G21   29.97R                  
$$

WAZ036>038-240500-
NORTHEAST WASHINGTON
  
CITY           SKY/WX    TMP DP  RH WIND       PRES   REMARKS
SPOKANE GEIGER MOCLDY    65  42  43 SW16      29.89F                  
SPOKANE FELTS  CLOUDY    68  42  38 SW12      29.88F                  
FAIRCHILD AFB  PTCLDY    64  39  39 SW9       29.89F                  
COEURDALENE,ID CLOUDY    64  45  49 S6        29.92S                  
DEER PARK      MOCLDY    61  47  59 MISG      29.89F                  
$$

WAZ029>033-240500-
SOUTHEAST WASHINGTON
  
CITY           SKY/WX    TMP DP  RH WIND       PRES   REMARKS
PULLMAN        MOCLDY    63  42  46 SW8       29.97S                  
LEWISTON, ID   PTCLDY    68  40  35 W7        29.93S                  
WALLA WALLA    CLOUDY    68  43  40 SW12      29.96R                  
PENDLETON, OR  MOCLDY    64  42  44 W21G29    29.98R                  
$$